Regional Weather Roundup
Issued by NWS Wakefield, VA

Home | Current Version | Previous Version | Graphics & Text | Print | Product List | Glossary On
Versions: 1 2 3 4 5 6 7 8 9 10 11 12 13 14 15 16 17 18 19 20 21 22 23 24 25 26 27 28 29 30 31 32 33 34 35 36 37 38 39 40 41 42 43 44 45 46 47 48 49 50
605
ASUS41 KAKQ 250015
RWRAKQ

REGIONAL WEATHER ROUNDUP
NATIONAL WEATHER SERVICE WAKEFIELD VA
800 PM EDT SAT JUN 24 2017

Note: "fair" indicates few or no clouds below 12,000 feet with no
significant weather and/or obstructions to visibility. * = Denotes
station may not report precipitation (e.g., rain,snow,etc.),
thunder or fog.

VAZ042-051-052>054-056-250100-
NORTHERN VIRGINIA

CITY           SKY/WX    TMP DP  RH WIND       PRES   REMARKS
WASH NATIONAL  PTCLDY    84  57  39 SW8       29.90S
DULLES         PTCLDY    81  59  47 SW3       29.91R
FORT BELVOIR   CLEAR     81  62  53 CALM      29.90S
QUANTICO       CLEAR     84  60  44 N6        29.91S
FREDERICKSBRG* CLEAR     85  58  40 N5        29.90S
STAFFORD*      CLEAR     78  66  66 CALM      29.95S
WARRENTON      CLEAR     80  62  54 CALM      29.91S
CULPEPER*      CLEAR     79  68  68 CALM      29.93R
MANASSAS*      CLEAR     81  63  54 SW3       29.91S
LEESBURG*      CLEAR    N/A N/A N/A CALM      29.92S
WINCHESTER     CLEAR     79  54  41 W7        29.93R
FRONT ROYAL*   CLEAR     79  54  41 SW3       29.92R
LURAY*         CLEAR     81  55  41 CALM      29.94S
$$

VAZ048-049-060>072-079>083-250100-
CENTRAL AND SOUTH CENTRAL VIRGINIA

CITY           SKY/WX    TMP DP  RH WIND       PRES   REMARKS
RICHMOND       CLOUDY    84  70  62 SW8       29.91R
CHESTERFIELD*  FAIR      83  69  62 SW3       29.92
PETERSBURG*    CLOUDY    77  73  87 CALM      29.93R
HANOVER        MOCLDY    80  67  64 CALM      29.92R
TAPPAHANNOCK*  MOCLDY    82  58  44 CALM      29.92S
QUINTON*       FAIR      83  71  68 CALM      29.90S
CHARLOTTSVILLE PTCLDY    84  63  49 CALM      29.92R
GORDONSVILLE*  CLOUDY    78  67  70 CALM      29.92R
ORANGE*        CLEAR     77  68  73 CALM      29.92R
LOUISA*        CLOUDY    82  70  65 CALM      29.91S
BUMPASS*       FAIR      80  71  75 CALM      29.91S
FARMVILLE*     PTCLDY    80  66  62 CALM      29.91S
CREWE*         FAIR      79  75  86 CALM      29.93R
FORT PICKETT*  FAIR      79  74  84 CALM      29.94R
CHASE CITY*    FAIR      78  78  99 CALM      29.95R
CLARKSVILLE*   FAIR      75  75 100 E3        29.94R
SOUTH HILL*    CLOUDY    74  74 100 CALM      30.00R
LAWRENCEVILLE* FAIR      76  75  97 CALM      29.95R
EMPORIA*       CLOUDY    77  72  83 CALM      29.95R
$$

VAZ088>098-250100-
SOUTHEAST VIRGINIA

CITY           SKY/WX    TMP DP  RH WIND       PRES   REMARKS
NORFOLK        MOCLDY    87  69  54 SW8       29.91R
VIRGINIA BEACH CLOUDY    79  68  69 SE3       29.91R
NORFOLK NAVAL  MOCLDY    85  69  58 SW6       29.93R
WEST POINT*    CLOUDY    82  68  62 W3        29.91S
SALUDA*        FAIR      83  73  70 CALM      29.90R
NEWPORT NEWS   CLOUDY    85  68  56 W5        29.91R
LANGLEY AFB    CLOUDY    83  72  69 SW8       29.91R
FORT EUSTIS    CLOUDY    84  73  69 W3        29.90R
WILLIAMSBURG*  CLOUDY    86  72  62 CALM      29.92R
HR EXEC AP*    FAIR      79  72  78 CALM      29.89R
FRANKLIN*      CLOUDY    82  70  65 CALM      29.93R
US460-WAKEFLD  LGT RAIN  81  74  79 CALM      29.92R
$$

VAZ020-022-025-037-045-250100-
WEST CENTRAL AND SOUTHWEST VIRGINIA

CITY           SKY/WX    TMP DP  RH WIND       PRES   REMARKS
STAUNTON*      PTCLDY    78  55  45 NW5       29.98R
WAYNESBORO*    CLOUDY    78  60  53 W5        29.98R
HOT SPRINGS VA CLEAR     66  43  42 NW6       30.11R
LYNCHBURG      PTCLDY    81  61  50 CALM      29.95R
DANVILLE       MOCLDY    76  75  97 MISG      29.95R
SOUTH BOSTON*  FAIR      77  75  95 S3        29.94R
MARTINSVILLE   PTCLDY    78  73  83 CALM      29.98R
ROANOKE        PTCLDY    80  58  46 NW7       29.99R
BLACKSBURG     CLEAR     76  55  47 NW6       30.06R
DUBLIN*        CLEAR     76  51  40 NW6       30.06R
MARION*        PTCLDY    75  53  46 NW3       30.09R
HILLSVILLE*    CLEAR     75  51  43 NW13      30.06R
RICHLANDS*     FAIR      71  59  66 NW8       30.10R
WISE*          PTCLDY    72  55  56 CALM      30.11R
ABINGDON*      PTCLDY    77  58  51 N8        30.06R
$$

MDZ021>025-VAZ099-100-250100-
SOUTHERN MARYLAND AND THE DELMARVA PENINSULA

CITY           SKY/WX    TMP DP  RH WIND       PRES   REMARKS
PATUXENT RIVER PTCLDY    84  60  44 NW7       29.90R
BAY BRIDGE APT CLEAR     82  63  51 W6        29.90S
LEONARDTOWN    PTCLDY    81  59  47 CALM      29.93
DOVER          CLEAR     82  65  56 SW7       29.88R
GEORGETOWN     CLEAR     84  60  44 NW3       29.91R
EASTON         PTCLDY    84  61  45 CALM      29.94R
CAMBRIDGE      MOCLDY    82  61  47 NW5       29.90S
SALISBURY      MOCLDY    83  63  50 NW3       29.90R
OCEAN CITY     CLOUDY    83  67  58 W3        29.90R
WALLOPS ISLAND CLOUDY    77  70  79 S6        29.91R
ACCOMACK*      CLOUDY    82  73  72 CALM      29.90R
$$

NCZ012>017-030>032-250100-
NORTH CENTRAL AND EASTERN NORTH CAROLINA

CITY           SKY/WX    TMP DP  RH WIND       PRES   REMARKS
ROANOKE RAPIDS LGT RAIN  79  73  83 NW6       29.93R
RALEIGH        CLOUDY    73  71  93 SE5       29.96S
ELIZABETH CITY CLOUDY    82  76  81 S9        29.93R
AHOSKIE*       RAIN      80  76  87 CALM      29.93R
EDENTON*       CLOUDY    82  74  77 CALM      29.94R
CURRITUCK*     CLOUDY    87  71  58 SW5       29.92R
KILL DEVIL HLS LGT RAIN  78  73  86 CALM      29.93R
MANTEO         CLOUDY    79  76  88 CALM      29.95R
CAPE HATTERAS  PTCLDY    81  75  82 SW10      29.97R HAZE
TARBORO*       NOT AVBL
GOLDSBORO      LGT RAIN  78  78 100 W8        29.95R
WASHINGTON     RAIN     N/A N/A N/A S10       29.95R
GREENVILLE     RAIN      77  77 100 CALM      29.96R
NEW BERN       TSTM      74  74 100 NW3       29.99R FOG
WILMINGTON     PTCLDY    82  73  74 SW10      29.97R
$$

VAZ048-250100-
ELSEWHERE

CITY           SKY/WX    TMP DP  RH WIND       PRES   REMARKS
HARRISBURG PA  PTCLDY    80  64  58 SW6       29.86R
BALTIMORE      PTCLDY    80  59  48 W7        29.90R
ANNAPOLIS      CLEAR     82  61  48 W3        29.89S
ANDREWS AFB    CLEAR     82  57  42 SW6       29.90S
PHILADELPHIA   CLOUDY    83  59  44 SW9       29.87R
HENDERSON NC   CLOUDY    74  72  92 S3        29.95R
GREENSBORO     CLOUDY    74  72  93 SW5       29.96R
ROCKY MOUNT    HVY RAIN  73  73 100 N15       29.97R FOG
$$

VAZ100-250100-
MARINE

STATION/POSITION TIME  TEMP    WIND        PRES    WAVE   SWELL
                       AIR SEA DIR/SP/G            HT/PER HT/PER
                 (UTC) (F)     (DEG/KT/KT) (MB)    (FT/S) (FT/S)
BRANDYWINE LGT   2348          280/  9/ 11 1012.7R
CAPE MAY NJ      2336   79 72  290/  8/ 11 1012.0R
LEWES DE         2342   81 71  300/  9/ 10 1012.2R
15NM E FENWICK I 2250   71 68  200/  8/  8 1012.5    4/ 7   5/ 7
WACHAPREAGUE VA  2342   81 82  190/  5/  6 1012.4R
THOMAS POINT MD  0000   83 79  280/  5/  7   N/A
GOOSES REEF MD   2350   84     290/  2/  4 1013.5R
COVE POINT MD    2342   83     320/  4/  5 1013.2R
SOLOMONS ISLAND  2348          320/  4/  6   N/A
BISHOPS HEAD MD  2342   84 86  300/  5/  7 1012.9R
PINEY POINT MD   2348           10/  7/  9   N/A
POTOMAC MD       2350   81     140/  2/  4 1011.6R
CAMBRIDGE MD     2342   83 82              1013.5R
LEWISETTA VA     2342   83 80   10/  4/  6 1012.4R
RAPPAHANNOCK LGT 2348          170/  3/  4 1013.1R
STINGRAY PT      2350   82     150/  2/  4 1013.1R
YORK RVR RNG VA  2342   84     290/  5/  6 1012.7R
YORKTOWN VA      2342   84 78  240/  4/  4 1012.1R
JAMESTOWN VA     2350   85     270/  6/  6   N/A
DOMINION TERM VA 2342   84     250/  5/  6 1012.8R
KIPTOPEKE VA     2342      80  170/  5/  5   N/A
CHES BAY BRIDGE  2342   81 75  150/  4/  6 1012.6R
CAPE HENRY VA    2342   81     140/  6/  8   N/A
WILLOUBY STN VA  2342   84     230/  8/  9 1012.5R
S CRANEY ISL VA  2342   86     230/  5/  6 1012.4R
CAPE HENRY BUOY  2330      74                N/A     3/ 6
1ST LANDING BUOY 2350   79                 1012.4R
CAPE CHARLES BUO 2351      72                N/A     2/ 8
64NM E OF VA BCH 2350   75 74  190/ 10/ 12 1013.6R   5/ 8   3/ 8
DUCK PIER NC     2342   81 61  200/ 15/ 18 1013.0R
44100 DUCK FRF   2305      73                N/A     3/ 8
OREGON INLET NC  2348          200/ 16/ 19 1013.8R
HATTERAS NC      2342   78 79  220/ 12/ 15 1014.4R
DIAMOND SHLS NC  2350   82 80  220/ 19/ 23 1014.4R   6/ 7
CAPE LOOKOUT NC  2300   81     210/ 15/ 20 1013.8R
$$




USA.gov is the U.S. government's official web portal to all federal, state and local government web resources and services.